Location: La Sioule Rivi�re
(46.3664°N, 3.3197°E)
Time: 12:34:49
(UTC+00:00)

Cosmos 1892 - Pass Details

Date: 29 October 2020
Orbit: 504 x 523 km, 82.5° (Epoch: 23 November)

Event Time Altitude Azimuth Distance (km) Brightness Sun altitude
Rises 18:29:38 0° 343° (NNW) 2,666 6.6 -20.1°
Reaches altitude 10° 18:31:53 10° 335° (NNW) 1,773 5.7 -20.5°
Maximum altitude 18:35:29 37° 268° (W) 829 4.3 -21.1°
Drops below altitude 10° 18:39:04 10° 200° (SSW) 1,759 5.6 -21.7°
Sets 18:41:17 0° 192° (SSW) 2,641 6.4 -22.1°
